User: anonymous   Login
Location: Bremen
(53.0793°N, 8.8017°E)
Time: 23:34:22
(UTC+02:00)
Language:

Tiros 1 - Orbit

View from above orbital plane
View from above orbital plane
View from above satellite
View from above satellite

Ground track
Ground track

The orbit data is extracted from the following two-line orbital elements,

1 00029U 60002B   24102.53521333  .00000813  00000-0  14602-3 0  9991
2 00029  48.3779 204.3858 0022662  81.6805 278.6676 14.76161894424310
Epoch (UTC): 11 April 2024 12:50:42
Eccentricity: 0.0022662
inclination: 48.3779°
perigee height: 625 km
apogee height: 657 km
right ascension of ascending node: 204.3858°
argument of perigee: 81.6805°
revolutions per day: 14.76161894
mean anomaly at epoch: 278.6676°
orbit number at epoch: 42431

The dashed part of the orbit path shows where the satellite is in the earth's shadow,  

DLR